﻿Platform ID No.;WMO ID No.;Obs. Date;Latitude;Longitude;Loc. quality;Level;AIR PRESS TEND;AIR PRESSURE;BATTERY;HK 1;HK 2;SST;SUBMER
210166;2501718;2022-07-09 08:05:00;81.5631;90.2865;G;0.0;0.5;994.7;10.0;100.0;0.0;-1.2;0.0
210166;2501718;2022-07-09 07:05:00;81.5632;90.2768;G;0.0;-0.2;994.3;10.0;100.0;0.0;-1.2;0.0
210166;2501718;2022-07-09 06:05:00;81.5623;90.2627;G;0.0;-0.3;994.3;10.0;100.0;0.0;-1.2;0.0
210166;2501718;2022-07-09 05:04:00;81.5619;90.2521;G;0.0;-0.6;994.2;10.0;100.0;0.0;-1.2;0.0
210166;2501718;2022-07-09 04:04:00;81.5609;90.2428;G;0.0;-0.7;994.5;10.0;100.0;0.0;-1.28;0.0
210166;2501718;2022-07-09 03:04:00;81.5603;90.2354;G;0.0;-0.9;994.6;10.0;100.0;0.0;-1.28;0.0
210166;2501718;2022-07-09 02:04:00;81.5598;90.2297;G;0.0;-1.4;994.8;10.0;100.0;0.0;-1.28;0.0
210166;2501718;2022-07-09 01:05:00;81.5597;90.226;G;0.0;-1.1;995.2;10.0;100.0;0.0;-1.28;0.0
210166;2501718;2022-07-09 00:05:00;81.5599;90.2231;G;0.0;-1.3;995.5;10.0;100.0;0.0;-1.28;0.0
210166;2501718;2022-07-08 23:05:00;81.56;90.2226;G;0.0;-0.8;996.2;10.0;100.0;0.0;-1.28;0.0
210166;2501718;2022-07-08 22:04:00;81.5611;90.2082;G;0.0;-4.3;997.1;10.0;100.0;0.0;-1.28;0.0
210166;2501718;2022-07-08 21:04:00;81.5623;90.1815;G;0.0;-0.7;996.8;10.0;100.0;0.0;-1.28;0.0
210166;2501718;2022-07-08 20:04:00;81.5629;90.1502;G;0.0;-0.8;997.0;10.0;100.0;0.0;-1.2;0.0
210166;2501718;2022-07-08 19:04:00;81.5635;90.1206;G;0.0;-0.5;997.4;10.0;100.0;0.0;-1.2;0.0
210166;2501718;2022-07-08 18:04:00;81.5636;90.098;G;0.0;-0.6;997.5;10.0;100.0;0.0;-1.2;0.0
210166;2501718;2022-07-08 17:04:00;81.563;90.0829;G;0.0;-0.4;997.8;10.0;100.0;0.0;-1.12;0.0
210166;2501718;2022-07-08 16:04:00;81.5635;90.0711;G;0.0;-0.4;997.9;10.0;100.0;0.0;-1.12;0.0
210166;2501718;2022-07-08 15:05:00;81.5635;90.0574;G;0.0;-0.1;998.1;10.0;100.0;0.0;-1.12;0.0
210166;2501718;2022-07-08 14:05:00;81.5641;90.0454;G;0.0;0.0;998.2;10.0;100.0;0.0;-1.12;0.0
210166;2501718;2022-07-08 13:05:00;81.5641;90.0422;G;0.0;0.1;998.3;10.0;100.0;0.0;-1.12;0.0
210166;2501718;2022-07-08 12:05:00;81.5641;90.0418;G;0.0;0.0;998.2;10.0;100.0;0.0;-1.04;0.0
210166;2501718;2022-07-08 11:05:00;81.5641;90.0417;G;0.0;-0.1;998.2;10.0;100.0;0.0;-1.04;0.0
210166;2501718;2022-07-08 10:04:00;81.5643;90.0404;G;0.0;0.2;998.2;10.0;100.0;0.0;-1.04;0.0
210166;2501718;2022-07-08 09:04:00;81.5643;90.0407;G;0.0;0.4;998.2;10.0;100.0;0.0;-1.04;0.0
210166;2501718;2022-07-08 08:04:00;81.5643;90.04;G;0.0;0.9;998.3;10.0;100.0;0.0;-1.04;0.0
210166;2501718;2022-07-08 07:04:00;81.5643;90.0396;G;0.0;0.6;998.0;10.0;100.0;0.0;-1.04;0.0
210166;2501718;2022-07-08 06:05:00;81.5643;90.0394;G;0.0;0.5;997.8;10.0;100.0;0.0;-1.04;0.0
210166;2501718;2022-07-08 05:05:00;81.5643;90.0395;G;0.0;0.1;997.4;10.0;100.0;0.0;-1.04;0.0
210166;2501718;2022-07-08 04:05:00;81.5643;90.0394;G;0.0;0.3;997.4;10.0;100.0;0.0;-1.04;0.0
210166;2501718;2022-07-08 03:05:00;81.5643;90.0392;G;0.0;0.3;997.3;10.0;100.0;0.0;-1.04;0.0
210166;2501718;2022-07-08 02:05:00;81.5642;90.0396;G;0.0;0.6;997.3;10.0;100.0;0.0;-1.12;0.0
210166;2501718;2022-07-08 01:05:00;81.5643;90.039;G;0.0;0.8;997.1;10.0;100.0;0.0;-1.12;0.0
210166;2501718;2022-07-08 00:04:00;81.5643;90.0395;G;0.0;1.3;997.0;10.0;100.0;0.0;-1.12;0.0
210166;2501718;2022-07-07 23:04:00;81.5643;90.0394;G;0.0;1.4;996.7;10.0;100.0;0.0;-1.04;0.0
210166;2501718;2022-07-07 22:04:00;81.5643;90.0394;G;0.0;1.8;996.3;10.0;100.0;0.0;-1.12;0.0
210166;2501718;2022-07-07 21:04:00;81.5644;90.0401;G;0.0;2.0;995.7;10.0;100.0;0.0;-1.04;0.0
210166;2501718;2022-07-07 20:05:00;81.5644;90.0397;G;0.0;2.3;995.3;10.0;100.0;0.0;-1.04;0.0
210166;2501718;2022-07-07 19:05:00;81.5643;90.0396;G;0.0;2.5;994.5;10.0;100.0;0.0;-1.04;0.0
210166;2501718;2022-07-07 18:05:00;81.5648;90.0394;G;0.0;2.7;993.7;10.0;100.0;0.0;-1.04;0.0
210166;2501718;2022-07-07 17:05:00;81.5648;90.0391;G;0.0;2.8;993.0;10.0;100.0;0.0;-1.04;0.0
210166;2501718;2022-07-07 16:04:00;81.5648;90.0391;G;0.0;2.2;992.0;11.0;110.0;0.0;-1.04;0.0
210166;2501718;2022-07-07 15:04:00;81.5649;90.0396;G;0.0;1.4;991.0;11.0;110.0;0.0;-1.04;0.0
210166;2501718;2022-07-07 14:04:00;81.565;90.0389;G;0.0;0.5;990.2;11.0;110.0;0.0;-0.96;0.0
210166;2501718;2022-07-07 13:04:00;81.567;90.0313;G;0.0;0.6;989.8;11.0;110.0;0.0;-0.96;0.0
210166;2501718;2022-07-07 12:04:00;81.5695;90.0141;G;0.0;0.4;989.6;10.0;100.0;0.0;-0.96;0.0
210166;2501718;2022-07-07 11:04:00;81.5728;89.987;G;0.0;0.5;989.7;10.0;100.0;0.0;-0.96;0.0
210166;2501718;2022-07-07 10:05:00;81.577;89.9499;G;0.0;0.0;989.2;10.0;100.0;0.0;-0.88;0.0
210166;2501718;2022-07-07 09:05:00;81.582;89.9051;G;0.0;-0.2;989.2;10.0;100.0;0.0;-0.8;0.0
210166;2501718;2022-07-07 08:05:00;81.5863;89.861;G;0.0;0.3;989.2;10.0;100.0;0.0;-0.72;0.0
210166;2501718;2022-07-07 07:05:00;81.5923;89.8185;G;0.0;0.2;989.2;10.0;100.0;0.0;-0.72;0.0
210166;2501718;2022-07-07 06:05:00;81.5962;89.7882;G;0.0;0.7;989.4;10.0;100.0;0.0;-0.64;0.0
210166;2501718;2022-07-07 05:05:00;81.6016;89.778;G;0.0;0.6;988.9;11.0;110.0;0.0;-0.64;0.0
210166;2501718;2022-07-07 04:04:00;81.611;89.7675;G;0.0;1.0;989.0;11.0;110.0;0.0;-0.64;0.0
210166;2501718;2022-07-07 03:04:00;81.6197;89.7676;G;0.0;1.2;988.7;11.0;110.0;0.0;-0.64;0.0
210166;2501718;2022-07-07 02:04:00;81.6301;89.7764;G;0.0;1.2;988.3;11.0;110.0;0.0;-0.64;0.0
210166;2501718;2022-07-07 01:04:00;81.6404;89.7885;G;0.0;1.2;988.0;11.0;110.0;0.0;-0.64;0.0
210166;2501718;2022-07-07 00:05:00;81.65;89.8024;G;0.0;1.1;987.5;11.0;110.0;0.0;-0.64;0.0
210166;2501718;2022-07-06 23:05:00;81.66;89.8133;G;0.0;0.7;987.1;11.0;110.0;0.0;-0.64;0.0
210166;2501718;2022-07-06 22:05:00;81.6687;89.8249;G;0.0;0.3;986.8;10.0;100.0;0.0;-0.64;0.0
210166;2501718;2022-07-06 21:04:00;81.6771;89.8176;G;0.0;-0.7;986.4;11.0;110.0;0.0;-0.64;0.0
210166;2501718;2022-07-06 20:04:00;81.6846;89.8027;G;0.0;-2.0;986.4;11.0;110.0;0.0;-0.64;0.0
210166;2501718;2022-07-06 19:04:00;81.6912;89.7754;G;0.0;-3.0;986.5;11.0;110.0;0.0;-0.64;0.0
210166;2501718;2022-07-06 18:04:00;81.6956;89.7312;G;0.0;-3.8;987.1;11.0;110.0;0.0;-0.64;0.0
210166;2501718;2022-07-06 17:04:00;81.6975;89.6789;G;0.0;-3.8;988.4;11.0;110.0;0.0;-0.64;0.0
210166;2501718;2022-07-06 16:04:00;81.699;89.6307;G;0.0;-3.6;989.5;10.0;100.0;0.0;-0.64;0.0
210166;2501718;2022-07-06 15:04:00;81.7003;89.5842;G;0.0;-3.0;990.9;10.0;100.0;0.0;-0.64;0.0
210166;2501718;2022-07-06 14:05:00;81.7022;89.5401;G;0.0;-2.6;992.2;10.0;100.0;0.0;-0.64;0.0
210166;2501718;2022-07-06 13:05:00;81.7045;89.4973;G;0.0;-2.4;993.1;11.0;110.0;0.0;-0.64;0.0
210166;2501718;2022-07-06 12:05:00;81.7062;89.4609;G;0.0;-2.2;993.9;11.0;110.0;0.0;-0.32;0.0
210166;2501718;2022-07-06 11:05:00;81.7076;89.4272;G;0.0;-1.2;994.8;11.0;110.0;0.0;-0.32;0.0
210166;2501718;2022-07-06 10:05:00;81.7083;89.4063;G;0.0;-0.4;995.5;11.0;110.0;0.0;-0.32;0.0
210166;2501718;2022-07-06 09:04:00;81.7096;89.3881;G;0.0;0.2;996.1;11.0;110.0;0.0;-0.32;0.0
210166;2501718;2022-07-06 08:04:00;81.7132;89.3722;G;0.0;0.0;996.0;11.0;110.0;0.0;-0.32;0.0
210166;2501718;2022-07-06 07:04:00;81.7164;89.3552;G;0.0;-0.7;995.9;11.0;110.0;0.0;-0.32;0.0
210166;2501718;2022-07-06 06:04:00;81.7185;89.334;G;0.0;-1.2;995.9;10.0;100.0;0.0;-0.32;0.0
210166;2501718;2022-07-06 05:04:00;81.7192;89.305;G;0.0;-1.6;996.0;11.0;110.0;0.0;-0.32;0.0
210166;2501718;2022-07-06 04:05:00;81.7188;89.2748;G;0.0;-1.6;996.6;11.0;110.0;0.0;-0.32;0.0
210166;2501718;2022-07-06 03:05:00;81.718;89.2465;G;0.0;-1.6;997.1;11.0;110.0;0.0;-0.32;0.0
210166;2501718;2022-07-06 02:05:00;81.7171;89.2183;G;0.0;-1.4;997.6;11.0;110.0;0.0;-0.32;0.0
210166;2501718;2022-07-06 01:05:00;81.7163;89.1906;G;0.0;-1.0;998.2;11.0;110.0;0.0;-0.4;0.0
210166;2501718;2022-07-06 00:04:00;81.7163;89.1624;G;0.0;-0.8;998.7;11.0;110.0;0.0;-0.4;0.0
210166;2501718;2022-07-05 23:04:00;81.7175;89.1356;G;0.0;-0.8;999.0;11.0;110.0;0.0;-0.32;0.0
210166;2501718;2022-07-05 22:04:00;81.7191;89.1084;G;0.0;-1.0;999.2;11.0;110.0;0.0;-0.4;0.0
210166;2501718;2022-07-05 21:04:00;81.7207;89.076;G;0.0;-1.1;999.5;11.0;110.0;0.0;-0.4;0.0
210166;2501718;2022-07-05 20:04:00;81.7222;89.0369;G;0.0;-1.3;999.8;11.0;110.0;0.0;-0.4;0.0
210166;2501718;2022-07-05 19:05:00;81.7232;88.9954;G;0.0;-1.3;1000.2;11.0;110.0;0.0;-0.4;0.0
210166;2501718;2022-07-05 18:05:00;81.7234;88.951;G;0.0;-1.8;1000.6;11.0;110.0;0.0;-0.4;0.0
210166;2501718;2022-07-05 17:05:00;81.7231;88.9054;G;0.0;-1.9;1001.1;11.0;110.0;0.0;-0.48;0.0
210166;2501718;2022-07-05 16:05:00;81.7223;88.8609;G;0.0;-2.0;1001.5;11.0;110.0;0.0;-0.48;0.0
210166;2501718;2022-07-05 15:05:00;81.7211;88.821;G;0.0;-1.7;1002.4;11.0;110.0;0.0;-0.4;0.0
210166;2501718;2022-07-05 14:04:00;81.7199;88.7837;G;0.0;-1.4;1003.0;11.0;110.0;0.0;-0.4;0.0
210166;2501718;2022-07-05 13:04:00;81.7185;88.7533;G;0.0;-1.2;1003.5;11.0;110.0;0.0;-0.4;0.0
210166;2501718;2022-07-05 12:04:00;81.7174;88.7308;G;0.0;-0.9;1004.1;11.0;110.0;0.0;-0.4;0.0
210166;2501718;2022-07-05 11:04:00;81.7167;88.7155;G;0.0;-0.7;1004.4;11.0;110.0;0.0;-0.4;0.0
210166;2501718;2022-07-05 10:04:00;81.7168;88.7023;G;0.0;-0.4;1004.7;11.0;110.0;0.0;-0.32;0.0
210166;2501718;2022-07-05 09:05:00;81.717;88.6957;G;0.0;0.0;1005.0;11.0;110.0;0.0;-0.32;0.0
210166;2501718;2022-07-05 08:05:00;81.7175;88.6951;G;0.0;0.4;1005.1;11.0;110.0;0.0;-0.32;0.0
210166;2501718;2022-07-05 07:05:00;81.718;88.6978;G;0.0;0.3;1005.1;11.0;110.0;0.0;-0.32;0.0
210166;2501718;2022-07-05 06:05:00;81.7187;88.6991;G;0.0;0.2;1005.0;10.0;100.0;0.0;-0.32;0.0
210166;2501718;2022-07-05 05:05:00;81.719;88.6995;G;0.0;-0.1;1004.7;11.0;110.0;0.0;-0.4;0.0
210166;2501718;2022-07-05 04:05:00;81.7192;88.7005;G;0.0;0.1;1004.8;11.0;110.0;0.0;-0.4;0.0
210166;2501718;2022-07-05 03:04:00;81.7194;88.7002;G;0.0;0.0;1004.8;11.0;110.0;0.0;-0.32;0.0
210166;2501718;2022-07-05 02:04:00;81.7191;88.6968;G;0.0;0.1;1004.8;11.0;110.0;0.0;-0.4;0.0
210166;2501718;2022-07-05 01:04:00;81.7191;88.6857;G;0.0;0.1;1004.7;11.0;110.0;0.0;-0.4;0.0
210166;2501718;2022-07-05 00:04:00;81.719;88.6762;G;0.0;0.4;1004.8;11.0;110.0;0.0;-0.48;0.0
210166;2501718;2022-07-04 23:05:00;81.719;88.6707;G;0.0;0.3;1004.7;11.0;110.0;0.0;-0.48;0.0
210166;2501718;2022-07-04 22:05:00;81.7193;88.665;G;0.0;0.2;1004.6;11.0;110.0;0.0;-0.48;0.0
210166;2501718;2022-07-04 21:05:00;81.7195;88.6602;G;0.0;-0.1;1004.4;11.0;110.0;0.0;-0.48;0.0
210166;2501718;2022-07-04 20:05:00;81.7195;88.6553;G;0.0;-0.3;1004.4;11.0;110.0;0.0;-0.56;0.0
210166;2501718;2022-07-04 19:04:00;81.7199;88.6442;G;0.0;-0.4;1004.4;11.0;110.0;0.0;-0.48;0.0
210166;2501718;2022-07-04 18:04:00;81.7205;88.6289;G;0.0;-1.0;1004.5;11.0;110.0;0.0;-0.48;0.0
210166;2501718;2022-07-04 17:04:00;81.7211;88.6092;G;0.0;-0.7;1004.7;11.0;110.0;0.0;-0.56;0.0
210166;2501718;2022-07-04 16:04:00;81.7215;88.5888;G;0.0;-0.9;1004.8;11.0;110.0;0.0;-0.48;0.0
210166;2501718;2022-07-04 15:04:00;81.722;88.5711;G;0.0;-0.4;1005.5;11.0;110.0;0.0;-0.48;0.0
210166;2501718;2022-07-04 14:05:00;81.7224;88.5561;G;0.0;-0.5;1005.4;11.0;110.0;0.0;-0.48;0.0
210166;2501718;2022-07-04 13:05:00;81.7224;88.5454;G;0.0;-0.2;1005.7;11.0;110.0;0.0;-0.48;0.0
210166;2501718;2022-07-04 12:05:00;81.7224;88.538;G;0.0;-0.2;1005.9;11.0;110.0;0.0;-0.4;0.0
210166;2501718;2022-07-04 11:05:00;81.7226;88.5365;G;0.0;-0.1;1005.9;11.0;110.0;0.0;-0.4;0.0
210166;2501718;2022-07-04 10:05:00;81.7236;88.5396;G;0.0;-0.1;1005.9;11.0;110.0;0.0;-0.4;0.0
210166;2501718;2022-07-04 09:05:00;81.725;88.5477;G;0.0;0.1;1006.1;11.0;110.0;0.0;-0.4;0.0
210166;2501718;2022-07-04 08:04:00;81.7269;88.5569;G;0.0;0.1;1006.0;11.0;110.0;0.0;-0.4;0.0
210166;2501718;2022-07-04 07:04:00;81.7286;88.563;G;0.0;0.1;1006.0;11.0;110.0;0.0;-0.4;0.0
210166;2501718;2022-07-04 06:04:00;81.7302;88.5683;G;0.0;0.1;1006.0;10.0;100.0;0.0;-0.4;0.0
210166;2501718;2022-07-04 05:04:00;81.7314;88.5727;G;0.0;0.0;1005.9;11.0;110.0;0.0;-0.48;0.0
210166;2501718;2022-07-04 04:05:00;81.7322;88.5752;G;0.0;0.0;1005.9;11.0;110.0;0.0;-0.56;0.0
210166;2501718;2022-07-04 03:05:00;81.7324;88.5759;G;0.0;-0.1;1005.9;11.0;110.0;0.0;-0.56;0.0
210166;2501718;2022-07-04 02:05:00;81.7324;88.5759;G;0.0;-0.1;1005.9;11.0;110.0;0.0;-0.56;0.0
210166;2501718;2022-07-04 01:05:00;81.7324;88.5754;G;0.0;0.1;1005.9;11.0;110.0;0.0;-0.56;0.0
210166;2501718;2022-07-04 00:04:00;81.7324;88.5751;G;0.0;0.2;1006.0;11.0;110.0;0.0;-0.64;0.0
210166;2501718;2022-07-03 23:04:00;81.7323;88.5749;G;0.0;0.0;1006.0;11.0;110.0;0.0;-0.56;0.0
210166;2501718;2022-07-03 22:04:00;81.7323;88.5748;G;0.0;-0.2;1005.8;11.0;110.0;0.0;-0.64;0.0
210166;2501718;2022-07-03 21:04:00;81.7325;88.5749;G;0.0;-0.1;1005.8;11.0;110.0;0.0;-0.64;0.0
210166;2501718;2022-07-03 20:04:00;81.7329;88.5728;G;0.0;-0.2;1006.0;11.0;110.0;0.0;-0.64;0.0
210166;2501718;2022-07-03 19:04:00;81.7332;88.5667;G;0.0;-0.2;1006.0;11.0;110.0;0.0;-0.64;0.0
210166;2501718;2022-07-03 18:05:00;81.7334;88.5598;G;0.0;-0.3;1005.9;11.0;110.0;0.0;-0.64;0.0
210166;2501718;2022-07-03 17:05:00;81.7336;88.5515;G;0.0;-0.1;1006.2;11.0;110.0;0.0;-0.64;0.0
210166;2501718;2022-07-03 16:05:00;81.7336;88.5423;G;0.0;-0.2;1006.2;11.0;110.0;0.0;-0.64;0.0
210166;2501718;2022-07-03 15:05:00;81.7332;88.5339;G;0.0;-0.2;1006.2;11.0;110.0;0.0;-0.64;0.0
210166;2501718;2022-07-03 14:04:00;81.7327;88.527;G;0.0;0.1;1006.3;11.0;110.0;0.0;-0.64;0.0
210166;2501718;2022-07-03 13:04:00;81.7321;88.523;G;0.0;0.1;1006.4;11.0;110.0;0.0;-0.64;0.0
210166;2501718;2022-07-03 12:04:00;81.7317;88.5217;G;0.0;0.2;1006.4;11.0;110.0;0.0;-0.56;0.0
210166;2501718;2022-07-03 11:04:00;81.7317;88.5211;G;0.0;0.3;1006.2;11.0;110.0;0.0;-0.56;0.0
210166;2501718;2022-07-03 10:04:00;81.7317;88.5201;G;0.0;0.5;1006.3;11.0;110.0;0.0;-0.56;0.0
210166;2501718;2022-07-03 09:04:00;81.7317;88.5125;G;0.0;0.4;1006.2;11.0;110.0;0.0;-0.64;0.0
210166;2501718;2022-07-03 08:05:00;81.7322;88.4963;G;0.0;0.0;1005.9;11.0;110.0;0.0;-0.56;0.0
210166;2501718;2022-07-03 07:05:00;81.7331;88.4749;G;0.0;-0.4;1005.8;11.0;110.0;0.0;-0.56;0.0
210166;2501718;2022-07-03 06:05:00;81.7337;88.4521;G;0.0;-0.7;1005.8;10.0;100.0;0.0;-0.56;0.0
210166;2501718;2022-07-03 05:05:00;81.7341;88.43;G;0.0;-0.7;1005.9;11.0;110.0;0.0;-0.64;0.0
210166;2501718;2022-07-03 04:04:00;81.7354;88.4047;G;0.0;-0.6;1006.2;11.0;110.0;0.0;-0.64;0.0
210166;2501718;2022-07-03 03:04:00;81.7365;88.3829;G;0.0;-0.6;1006.5;11.0;110.0;0.0;-0.64;0.0
210166;2501718;2022-07-03 02:04:00;81.7378;88.3607;G;0.0;-0.7;1006.6;11.0;110.0;0.0;-0.64;0.0
210166;2501718;2022-07-03 01:04:00;81.7391;88.3379;G;0.0;-0.5;1006.8;11.0;110.0;0.0;-0.64;0.0
210166;2501718;2022-07-03 00:04:00;81.7408;88.3106;G;0.0;-0.5;1007.1;11.0;110.0;0.0;-0.64;0.0
210166;2501718;2022-07-02 23:05:00;81.7428;88.2807;G;0.0;-0.3;1007.3;11.0;110.0;0.0;-0.64;0.0
210166;2501718;2022-07-02 22:05:00;81.7453;88.2482;G;0.0;-0.5;1007.3;11.0;110.0;0.0;-0.64;0.0
210166;2501718;2022-07-02 21:05:00;81.747;88.2155;G;0.0;-0.4;1007.6;11.0;110.0;0.0;-0.64;0.0
210166;2501718;2022-07-02 20:04:00;81.749;88.1846;G;0.0;-0.4;1007.6;11.0;110.0;0.0;-0.64;0.0
210166;2501718;2022-07-02 19:04:00;81.7513;88.1561;G;0.0;-0.3;1007.8;11.0;110.0;0.0;-0.64;0.0
210166;2501718;2022-07-02 18:04:00;81.7539;88.1318;G;0.0;-0.1;1008.0;11.0;110.0;0.0;-0.72;0.0
210166;2501718;2022-07-02 17:04:00;81.7566;88.1079;G;0.0;-0.1;1008.0;11.0;110.0;0.0;-0.72;0.0
210166;2501718;2022-07-02 16:04:00;81.7593;88.0848;G;0.0;0.2;1008.1;11.0;110.0;0.0;-0.72;0.0
210166;2501718;2022-07-02 15:04:00;81.7621;88.0642;G;0.0;0.6;1008.1;11.0;110.0;0.0;-0.72;0.0
210166;2501718;2022-07-02 14:04:00;81.7645;88.0484;G;0.0;1.0;1008.1;11.0;110.0;0.0;-0.64;0.0
210166;2501718;2022-07-02 13:04:00;81.7669;88.0381;G;0.0;1.6;1007.9;11.0;110.0;0.0;-0.64;0.0
210166;2501718;2022-07-02 12:05:00;81.7694;88.032;G;0.0;1.9;1007.5;11.0;110.0;0.0;-0.64;0.0
210166;2501718;2022-07-02 11:05:00;81.7735;88.0262;G;0.0;2.0;1007.1;11.0;110.0;0.0;-0.64;0.0
210166;2501718;2022-07-02 10:05:00;81.7782;88.0228;G;0.0;1.7;1006.3;11.0;110.0;0.0;-0.64;0.0
210166;2501718;2022-07-02 09:04:00;81.7837;88.0239;G;0.0;1.6;1005.6;11.0;110.0;0.0;-0.72;0.0
210166;2501718;2022-07-02 08:04:00;81.7892;88.0256;G;0.0;1.4;1005.1;11.0;110.0;0.0;-0.72;0.0
210166;2501718;2022-07-02 07:04:00;81.7946;88.0288;G;0.0;1.2;1004.6;11.0;110.0;0.0;-0.72;0.0
210166;2501718;2022-07-02 06:04:00;81.7997;88.0331;G;0.0;1.0;1004.0;10.0;100.0;0.0;-0.72;0.0
210166;2501718;2022-07-02 05:04:00;81.8046;88.035;G;0.0;1.1;1003.7;11.0;110.0;0.0;-0.8;0.0
210166;2501718;2022-07-02 04:05:00;81.8087;88.0329;G;0.0;1.1;1003.4;11.0;110.0;0.0;-0.8;0.0
210166;2501718;2022-07-02 03:05:00;81.811;88.0357;G;0.0;0.9;1003.0;11.0;110.0;0.0;-0.8;0.0
210166;2501718;2022-07-02 02:05:00;81.8123;88.038;G;0.0;0.7;1002.6;11.0;110.0;0.0;-0.8;0.0
210166;2501718;2022-07-02 01:05:00;81.8128;88.0363;G;0.0;0.6;1002.3;11.0;110.0;0.0;-0.8;0.0
210166;2501718;2022-07-02 00:04:00;81.8132;88.0301;G;0.0;0.4;1002.1;11.0;110.0;0.0;-0.88;0.0
210166;2501718;2022-07-01 23:04:00;81.8139;88.0193;G;0.0;0.3;1001.9;11.0;110.0;0.0;-0.88;0.0
210166;2501718;2022-07-01 22:04:00;81.815;88.0065;G;0.0;0.2;1001.7;11.0;110.0;0.0;-0.88;0.0
210166;2501718;2022-07-01 21:04:00;81.8161;87.9939;G;0.0;0.1;1001.7;11.0;110.0;0.0;-0.88;0.0
210166;2501718;2022-07-01 20:04:00;81.8174;87.981;G;0.0;0.0;1001.6;11.0;110.0;0.0;-0.88;0.0
210166;2501718;2022-07-01 19:04:00;81.8191;87.9689;G;0.0;-0.1;1001.5;11.0;110.0;0.0;-0.88;0.0
210166;2501718;2022-07-01 18:04:00;81.8215;87.9578;G;0.0;-0.1;1001.6;11.0;110.0;0.0;-0.88;0.0
210166;2501718;2022-07-01 17:05:00;81.8242;87.9449;G;0.0;-0.1;1001.6;11.0;110.0;0.0;-0.88;0.0
210166;2501718;2022-07-01 16:05:00;81.8267;87.9311;G;0.0;-0.3;1001.6;11.0;110.0;0.0;-0.88;0.0
210166;2501718;2022-07-01 15:05:00;81.8286;87.9135;G;0.0;-0.3;1001.7;11.0;110.0;0.0;-0.88;0.0
210166;2501718;2022-07-01 14:04:00;81.8305;87.8921;G;0.0;-0.4;1001.7;11.0;110.0;0.0;-0.88;0.0
210166;2501718;2022-07-01 13:05:00;81.8319;87.871;G;0.0;-0.4;1001.9;11.0;110.0;0.0;-0.88;0.0
210166;2501718;2022-07-01 12:04:00;81.833;87.8534;G;0.0;-0.5;1002.0;11.0;110.0;0.0;-0.88;0.0
210166;2501718;2022-07-01 11:04:00;81.8341;87.8375;G;0.0;-0.5;1002.1;11.0;110.0;0.0;-0.88;0.0
210166;2501718;2022-07-01 10:04:00;81.8348;87.8256;G;0.0;-0.6;1002.3;11.0;110.0;0.0;-0.88;0.0
210166;2501718;2022-07-01 09:04:00;81.8359;87.8128;G;0.0;-0.7;1002.5;11.0;110.0;0.0;-0.88;0.0
210166;2501718;2022-07-01 08:04:00;81.8381;87.7982;G;0.0;-0.7;1002.6;11.0;110.0;0.0;-0.8;0.0
210166;2501718;2022-07-01 07:05:00;81.8404;87.7817;G;0.0;-0.8;1002.9;11.0;110.0;0.0;-0.88;0.0
210166;2501718;2022-07-01 06:05:00;81.843;87.7673;G;0.0;-0.6;1003.2;10.0;100.0;0.0;-0.88;0.0
210166;2501718;2022-07-01 05:05:00;81.8459;87.7509;G;0.0;-0.7;1003.3;11.0;110.0;0.0;-0.88;0.0
210166;2501718;2022-07-01 04:05:00;81.8485;87.7351;G;0.0;-0.7;1003.7;11.0;110.0;0.0;-0.88;0.0
210166;2501718;2022-07-01 03:05:00;81.8512;87.716;G;0.0;-1.4;1003.8;11.0;110.0;1.587;-0.96;1.587
210166;2501718;2022-07-01 02:04:00;81.854;87.6944;G;0.0;-1.0;1004.0;11.0;110.0;0.0;-0.88;0.0
210166;2501718;2022-07-01 01:04:00;81.8563;87.671;G;0.0;-0.8;1004.4;11.0;110.0;0.0;-0.96;0.0
210166;2501718;2022-07-01 00:04:00;81.8584;87.6447;G;0.0;-0.6;1004.8;11.0;110.0;0.0;-0.96;0.0
210166;2501718;2022-06-30 23:05:00;81.8603;87.6184;G;0.0;-0.4;1005.0;11.0;110.0;0.0;-0.96;0.0
210166;2501718;2022-06-30 22:04:00;81.8617;87.5929;G;0.0;-0.5;1005.2;11.0;110.0;0.0;-0.96;0.0
210166;2501718;2022-06-30 21:05:00;81.863;87.5689;G;0.0;-0.3;1005.4;11.0;110.0;0.0;-0.96;0.0
210166;2501718;2022-06-30 20:05:00;81.864;87.5507;G;0.0;-0.4;1005.4;11.0;110.0;0.0;-0.96;0.0
210166;2501718;2022-06-30 19:04:00;81.8646;87.5361;G;0.0;-0.3;1005.7;11.0;110.0;0.0;-0.96;0.0
210166;2501718;2022-06-30 18:04:00;81.8653;87.5276;G;0.0;-0.2;1005.7;11.0;110.0;0.0;-0.96;0.0
210166;2501718;2022-06-30 17:04:00;81.8663;87.5191;G;0.0;-0.2;1005.8;11.0;110.0;0.0;-0.96;0.0
210166;2501718;2022-06-30 16:04:00;81.8671;87.5098;G;0.0;-0.1;1006.0;11.0;110.0;0.0;-0.96;0.0
210166;2501718;2022-06-30 15:04:00;81.8682;87.503;G;0.0;-0.1;1005.9;11.0;110.0;0.0;-0.96;0.0
210166;2501718;2022-06-30 14:04:00;81.8692;87.4988;G;0.0;-0.1;1006.0;11.0;110.0;0.0;-0.96;0.0
210166;2501718;2022-06-30 13:05:00;81.8703;87.4928;G;0.0;0.3;1006.1;11.0;110.0;0.0;-0.96;0.0
210166;2501718;2022-06-30 12:05:00;81.8719;87.4855;G;0.0;0.6;1006.0;11.0;110.0;0.0;-0.96;0.0
210166;2501718;2022-06-30 11:05:00;81.8735;87.4822;G;0.0;1.1;1006.1;11.0;110.0;0.0;-0.96;0.0
210166;2501718;2022-06-30 10:04:00;81.875;87.4836;G;0.0;1.5;1005.8;11.0;110.0;0.0;-0.96;0.0
210166;2501718;2022-06-30 09:05:00;81.8766;87.4865;G;0.0;1.4;1005.4;11.0;110.0;0.0;-0.96;0.0
210166;2501718;2022-06-30 08:05:00;81.8782;87.4918;G;0.0;1.4;1005.0;11.0;110.0;0.0;-0.96;0.0
210166;2501718;2022-06-30 07:04:00;81.8798;87.4988;G;0.0;0.7;1004.3;11.0;110.0;0.0;-0.96;0.0
210166;2501718;2022-06-30 06:04:00;81.8818;87.5081;G;0.0;0.7;1004.0;10.0;100.0;0.0;-0.96;0.0
210166;2501718;2022-06-30 05:04:00;81.8835;87.5156;G;0.0;0.6;1003.6;11.0;110.0;0.0;-0.96;0.0
210166;2501718;2022-06-30 04:04:00;81.8849;87.5204;G;0.0;0.7;1003.6;11.0;110.0;0.0;-0.96;0.0
210166;2501718;2022-06-30 03:05:00;81.886;87.5229;G;0.0;0.2;1003.3;11.0;110.0;0.0;-1.04;0.0
210166;2501718;2022-06-30 02:05:00;81.8871;87.5224;G;0.0;-0.3;1003.0;11.0;110.0;0.0;-1.04;0.0
210166;2501718;2022-06-30 01:05:00;81.8884;87.5167;G;0.0;-0.3;1002.9;11.0;110.0;0.0;-1.04;0.0
210166;2501718;2022-06-30 00:04:00;81.8898;87.5077;G;0.0;-0.5;1003.1;11.0;110.0;0.0;-1.04;0.0
210166;2501718;2022-06-29 23:04:00;81.8909;87.4973;G;0.0;-0.5;1003.3;11.0;110.0;0.0;-1.12;0.0
210166;2501718;2022-06-29 22:04:00;81.8916;87.4907;G;0.0;-0.9;1003.2;11.0;110.0;0.0;-1.12;0.0
210166;2501718;2022-06-29 21:04:00;81.892;87.4865;G;0.0;-0.7;1003.6;11.0;110.0;0.0;-1.12;0.0
210166;2501718;2022-06-29 20:04:00;81.8929;87.4828;G;0.0;-0.8;1003.8;11.0;110.0;0.0;-1.12;0.0
210166;2501718;2022-06-29 19:04:00;81.8946;87.4755;G;0.0;-0.7;1004.1;11.0;110.0;0.0;-1.12;0.0
210166;2501718;2022-06-29 18:04:00;81.8966;87.4686;G;0.0;-0.8;1004.3;11.0;110.0;0.0;-1.12;0.0
210166;2501718;2022-06-29 17:04:00;81.8983;87.4673;G;0.0;-0.6;1004.6;11.0;110.0;0.0;-1.12;0.0
210166;2501718;2022-06-29 16:05:00;81.9005;87.464;G;0.0;-0.8;1004.8;11.0;110.0;0.0;-1.2;0.0
210166;2501718;2022-06-29 15:05:00;81.903;87.4596;G;0.0;-0.6;1005.1;11.0;110.0;0.0;-1.2;0.0
210166;2501718;2022-06-29 14:05:00;81.9058;87.4546;G;0.0;-0.5;1005.2;11.0;110.0;0.0;-1.2;0.0
210166;2501718;2022-06-29 13:04:00;81.9088;87.4467;G;0.0;0.0;1005.6;11.0;110.0;0.0;-1.2;0.0
210166;2501718;2022-06-29 12:04:00;81.9114;87.439;G;0.0;0.0;1005.7;11.0;110.0;0.0;-1.2;0.0
210166;2501718;2022-06-29 11:04:00;81.9138;87.4339;G;0.0;0.1;1005.7;11.0;110.0;0.0;-1.2;0.0
210166;2501718;2022-06-29 10:04:00;81.9169;87.4285;G;0.0;-0.1;1005.6;11.0;110.0;0.0;-1.2;0.0
210166;2501718;2022-06-29 09:04:00;81.9202;87.4243;G;0.0;0.0;1005.7;11.0;110.0;0.0;-1.2;0.0
210166;2501718;2022-06-29 08:04:00;81.9241;87.4224;G;0.0;-0.3;1005.6;11.0;110.0;0.0;-1.2;0.0
210166;2501718;2022-06-29 07:04:00;81.9286;87.4239;G;0.0;-0.4;1005.7;11.0;110.0;0.0;-1.2;0.0
210166;2501718;2022-06-29 06:05:00;81.9336;87.4258;G;0.0;-0.7;1005.7;10.0;100.0;0.0;-1.2;0.0
210166;2501718;2022-06-29 05:05:00;81.9391;87.4252;G;0.0;-0.7;1005.9;11.0;110.0;0.0;-1.2;0.0
210166;2501718;2022-06-29 04:05:00;81.9449;87.4245;G;0.0;-0.8;1006.1;11.0;110.0;0.0;-1.28;0.0
210166;2501718;2022-06-29 03:05:00;81.9507;87.427;G;0.0;-0.6;1006.4;11.0;110.0;0.0;-1.28;0.0
210166;2501718;2022-06-29 02:04:00;81.9568;87.4282;G;0.0;-0.4;1006.6;11.0;110.0;0.0;-1.28;0.0
210166;2501718;2022-06-29 01:04:00;81.9623;87.4283;G;0.0;0.2;1006.9;11.0;110.0;0.0;-1.28;0.0
210166;2501718;2022-06-29 00:04:00;81.9671;87.4284;G;0.0;0.5;1007.0;11.0;110.0;0.0;-1.28;0.0
210166;2501718;2022-06-28 23:04:00;81.9714;87.4286;G;0.0;0.5;1007.0;11.0;110.0;0.0;-1.28;0.0
210166;2501718;2022-06-28 22:04:00;81.9757;87.4282;G;0.0;0.2;1006.7;11.0;110.0;0.0;-1.28;0.0
210166;2501718;2022-06-28 21:05:00;81.9798;87.4267;G;0.0;0.1;1006.5;11.0;110.0;0.0;-1.28;0.0
210166;2501718;2022-06-28 20:05:00;81.9836;87.4267;G;0.0;0.3;1006.5;11.0;110.0;0.0;-1.28;0.0
210166;2501718;2022-06-28 19:05:00;81.9872;87.4309;G;0.0;0.3;1006.5;11.0;110.0;0.0;-1.28;0.0